Zurück zum Katalog

COSMOS 2008

AktivMilitärLEO
NORAD 19902·PAYLOAD·🇷🇺 Russia

Gestartet Mar 24, 1989 von Plesetsk Cosmodrome

Loading…

Nächste Überflüge (nächste 24 Stunden)

TLE

AktuellSource: Space-Track

Epoche: Sep 14, 2026, 12:38 UTC

1 19902U 89025A   26257.52656551 -.00000013  00000-0  20301-4 0  9997
2 19902  74.0074 277.5994 0049270 131.7476 302.3566 12.57871726720784

Verfolge COSMOS 2008 in Echtzeit mit AllMySat

Download on the App Store